Cloud_Cover
100 100 99 20 100 61 7 0 0 46 12 0 67 7 1 5 0 1 0 0 0 0 0 0 0 0 0 0 7 11 16 3 14 10 8 49 21 82 100 100 100 100 100 100 100 96 99 100 61
98 95 41 29 70 84 53 5 2 0 0 4 1 28 0 41 0 12 4 0 0 0 0 0 0 0 0 0 3 8 6 2 11 1 7 5 3 8 100 100 100 100 100 100 100 87 28 100 59
96 91 73 100 33 10 6 4 0 0 0 0 0 0 0 0 0 0 0 0 0 0 0 0 0 0 0 0 0 0 2 10 1 16 5 5 5 98 100 100 100 100 100 100 100 100 100 100 5
91 93 46 93 52 0 41 5 5 10 74 4 0 0 0 0 0 0 0 0 0 0 0 0 0 0 0 0 0 0 0 0 5 11 5 5 6 100 100 100 100 100 100 100 100 100 73 67 81
18 70 53 3 5 0 0 0 5 4 4 12 46 3 0 0 3 0 0 0 0 0 0 0 0 0 0 1 2 0 0 2 5 68 5 29 97 100 100 100 100 100 100 100 100 100 100 100 98
7 10 4 5 68 0 0 3 82 2 5 1 47 3 0 0 0 0 0 4 0 0 0 0 0 0 0 0 0 0 0 2 70 64 5 99 100 100 100 100 100 100 100 97 100 88 79 72 65
71 7 5 1 2 5 9 5 4 5 5 8 3 0 3 23 1 4 7 0 0 0 0 1 0 0 1 0 0 1 0 7 100 100 97 100 100 70 100 100 100 100 100 97 100 100 100 97 98
88 6 1 2 0 0 50 70 88 6 5 0 5 0 0 1 0 4 8 3 2 0 5 5 5 5 0 0 1 4 0 6 84 100 100 100 100 99 100 100 100 100 100 100 92 100 100 84 100
99 97 6 85 2 0 0 100 86 1 5 5 4 0 0 88 55 2 0 0 0 0 1 5 7 5 2 0 0 0 33 5 5 29 100 100 100 99 100 99 100 100 99 61 47 100 100 100 100
44 57 11 6 1 0 0 0 3 4 5 29 5 0 0 0 0 0 0 0 0 0 0 4 12 14 2 0 0 0 14 94 31 34 100 100 100 100 100 58 92 5 43 61 35 54 35 50 76
97 96 83 55 86 0 4 4 0 2 5 5 10 0 1 8 0 0 0 0 0 0 0 5 5 4 96 4 2 0 4 97 53 97 68 100 88 92 100 9 9 91 78 15 95 92 94 98 5
100 100 97 79 3 54 9 5 0 5 5 5 5 2 0 0 0 0 0 0 0 3 4 0 5 22 100 99 14 2 0 4 81 14 34 98 90 95 83 87 63 99 100 100 54 100 88 10 21
100 99 66 71 100 95 19 1 5 0 0 4 5 2 0 0 0 0 0 0 0 0 0 4 3 75 100 100 98 39 4 0 0 62 97 41 99 17 9 73 14 96 100 100 100 100 73 94 95
100 55 45 58 64 100 24 6 1 1 0 0 5 5 1 0 0 0 0 0 0 0 0 6 8 99 100 100 97 100 10 5 11 0 98 31 93 100 99 88 93 100 37 96 51 98 100 69 52
98 62 4 96 82 99 89 98 96 0 0 0 63 37 59 85 86 0 0 0 0 0 0 0 0 54 100 100 100 95 100 56 91 6 5 4 93 100 100 100 100 100 100 100 100 100 100 100 14
100 69 58 7 46 100 100 100 100 97 3 0 0 5 3 6 98 88 86 0 0 0 0 0 0 4 97 100 100 100 30 66 41 77 30 59 100 100 100 100 100 100 100 100 100 38 67 70 8
100 35 44 5 6 100 100 100 100 53 57 1 0 1 0 0 7 54 8 2 0 0 0 0 0 0 20 100 100 100 90 100 96 88 96 100 100 34 8 55 68 73 87 88 65 32 73 96 79
99 70 92 2 98 100 100 100 99 100 100 100 70 0 3 4 2 1 3 0 1 50 11 0 0 0 0 16 92 92 100 100 98 14 32 5 80 100 94 81 23 5 5 5 22 16 55 5 18
100 100 100 100 100 100 91 100 100 100 60 100 100 100 10 5 5 52 3 2 6 8 5 5 0 0 0 0 7 100 100 99 100 71 5 13 5 5 5 5 12 5 5 17 5 70 100 15 98
98 81 85 82 100 97 20 72 100 58 100 100 100 94 95 79 95 13 4 2 32 4 5 100 4 2 0 0 0 21 46 98 87 99 68 100 100 52 100 100 39 95 5 32 17 11 100 9 11
60 61 9 13 100 58 1 8 100 71 100 99 100 64 3 5 51 20 35 1 0 5 8 23 2 1 3 5 3 4 1 5 67 85 100 100 100 72 91 100 100 96 70 71 98 32 92 89 87
64 5 9 100 46 26 86 80 82 100 100 100 32 86 69 5 2 2 2 9 0 0 2 5 2 5 3 5 4 5 5 4 24 100 92 49 26 94 100 99 100 100 100 83 100 100 91 86 10
0 5 3 14 94 98 55 28 100 98 90 96 31 3 5 5 73 41 1 21 5 0 0 16 0 1 5 5 38 7 5 4 5 1 5 0 11 41 96 75 82 100 64 58 90 81 94 100 93
6 12 59 80 80 99 56 90 100 97 56 98 84 58 77 5 0 5 1 4 2 12 4 0 0 0 5 5 44 51 18 5 7 19 46 5 8 58 100 100 100 41 53 9 11 70 87 98 82
36 37 16 96 95 78 43 96 63 83 99 100 100 100 100 16 0 0 0 0 0 0 0 5 2 3 3 5 5 5 5 6 5 66 8 100 99 87 85 100 100 100 67 100 50 12 5 5 5
52 6 1 6 5 4 62 6 5 5 0 5 92 100 100 99 0 0 0 0 0 0 0 0 5 5 5 5 5 5 0 0 5 13 98 21 98 98 100 100 100 100 97 14 5 8 17 5 2
95 4 0 0 0 1 62 7 5 1 0 28 84 38 60 85 0 0 0 0 0 0 0 0 5 5 1 5 0 0 2 1 1 1 3 86 60 43 96 36 10 9 30 9 5 5 5 0 0
97 36 0 0 0 0 11 1 1 7 5 8 100 100 94 10 0 0 0 0 0 0 0 0 0 0 2 0 10 3 2 1 1 1 5 4 3 5 2 5 9 21 13 5 5 5 2 4 3
53 0 0 0 0 0 2 0 0 0 4 0 80 100 95 1 3 85 5 0 0 0 0 0 0 0 0 0 2 5 0 0 1 2 0 0 2 5 4 2 6 11 5 5 3 2 1 1 2
0 0 0 0 0 0 0 0 0 0 0 0 0 0 6 96 4 11 35 0 0 0 0 0 0 0 0 0 0 0 3 4 2 3 5 5 5 7 19 5 5 26 23 5 2 0 0 0 0